Wind_Gust
15 16 15 15 15 15 15 15 15 14 14 14 14 14 14 14 14 13 13 14 14 14 15 14 14 15 15 15 16 16 14 14 16 10 6 26 13 23 10 14 11 15 11 7 4 1 4 3 6 7 5 1 8 5 11 6 7 4 8 9 10 13 11 12 13 4 7 16 16 18 7 6 3 7 6 13 20 15 13 14 13 19 18 19 24 27 26 23
15 15 15 14 15 15 14 14 14 14 14 14 14 14 14 14 13 14 14 13 13 14 14 14 14 15 15 14 15 15 13 11 15 13 28 13 17 16 19 21 23 13 13 5 6 4 3 4 9 6 5 4 4 8 3 9 7 8 6 9 18 10 18 3 5 7 9 12 18 14 13 4 2 2 5 12 8 15 19 15 20 24 21 22 24 25 25 25
16 15 15 15 15 15 15 14 14 14 14 13 13 14 14 14 13 13 13 13 11 13 13 13 14 15 14 14 14 11 12 11 9 15 23 26 22 18 20 18 17 16 16 7 7 7 11 5 4 4 6 7 5 9 4 12 5 8 9 13 16 7 9 8 5 10 7 9 14 8 10 7 2 3 3 4 8 14 20 20 14 23 21 23 22 23 23 22
16 16 16 15 15 15 15 15 15 15 15 15 14 14 13 13 13 13 13 13 13 12 12 13 14 14 13 13 13 10 8 8 7 9 8 6 25 24 20 18 12 16 9 5 3 6 2 7 8 5 8 8 8 7 8 10 8 8 9 13 11 8 11 10 5 9 9 7 5 5 7 9 15 6 5 4 11 8 13 21 26 25 26 23 23 23 20 20
17 16 16 15 15 15 15 15 15 14 14 14 14 14 14 14 13 13 12 12 12 12 13 13 13 13 14 14 12 6 7 3 6 5 3 5 20 25 22 16 14 10 10 4 2 4 5 6 6 5 8 13 6 3 9 7 12 5 11 12 14 11 10 16 14 12 9 11 4 2 6 8 11 10 7 2 3 12 17 13 24 32 31 31 26 20 19 17
17 17 16 16 15 15 16 15 15 14 14 14 14 13 13 13 14 13 12 12 11 12 12 12 13 13 14 14 11 7 2 6 6 6 4 4 16 21 20 15 12 8 6 3 4 1 1 3 4 5 6 9 5 10 8 10 8 15 12 8 12 14 14 10 13 8 5 11 12 4 2 3 5 8 7 5 4 6 6 20 21 23 25 25 22 21 21 17
17 17 16 16 16 15 16 16 15 15 15 15 15 15 14 13 13 13 13 13 12 11 13 12 12 13 13 13 5 4 4 21 7 11 7 5 11 17 16 12 10 8 6 7 5 7 4 6 3 7 7 7 7 13 14 8 6 11 21 8 12 9 17 18 12 6 8 7 6 6 2 3 3 7 5 8 5 14 25 24 25 25 24 22 28 20 19 16
17 16 16 16 16 16 16 16 15 15 15 15 14 14 14 14 13 13 12 12 12 12 12 11 12 12 11 9 3 3 3 16 17 4 7 9 9 13 14 8 10 8 8 10 9 7 2 5 8 4 8 9 7 10 8 8 6 10 16 12 16 11 14 12 10 8 7 8 9 3 5 6 4 5 6 7 16 23 24 26 27 26 23 21 20 19 18 17
17 17 16 16 16 16 17 16 15 15 15 14 14 14 14 13 14 13 13 12 11 11 11 11 11 10 9 5 2 5 12 13 6 11 10 11 10 11 13 12 6 11 9 8 6 4 3 7 9 13 8 7 7 10 7 4 15 11 18 15 15 14 11 12 7 7 8 7 6 7 6 7 10 7 8 16 14 21 25 26 27 27 25 23 20 18 18 17
17 17 16 16 16 17 16 16 16 15 15 15 14 14 13 13 12 12 12 11 11 10 11 10 10 9 7 4 3 2 9 7 8 13 11 12 11 10 7 6 11 9 9 7 4 7 9 15 10 6 5 10 6 11 7 5 15 9 11 12 15 17 16 11 15 9 9 10 4 8 5 7 5 6 8 8 23 24 25 24 23 25 24 21 20 19 18 21
17 17 16 16 16 17 17 16 16 15 15 15 15 14 14 14 13 13 12 11 10 10 10 10 9 6 6 5 3 10 8 7 4 9 12 13 12 12 13 9 12 14 9 5 13 15 15 16 13 6 11 14 6 9 6 10 6 10 13 9 10 8 6 6 4 9 7 11 4 6 9 8 5 3 20 15 19 26 29 24 22 21 21 19 17 16 12 15
18 17 17 16 17 17 17 16 16 16 16 15 14 14 14 13 13 12 12 11 11 10 9 8 5 5 6 4 4 19 5 3 8 9 13 14 13 15 10 10 12 11 13 11 8 9 10 13 7 7 13 4 7 10 9 6 6 10 8 8 9 8 15 6 6 7 2 10 4 7 7 12 4 7 19 26 19 22 27 24 21 20 19 18 17 15 13 15
18 18 17 17 17 17 17 17 16 16 15 15 14 13 13 13 12 12 11 10 8 8 7 7 6 6 5 5 20 18 9 3 5 8 8 11 6 7 9 8 11 10 10 11 11 12 15 15 10 16 16 7 3 10 13 16 8 8 9 5 7 8 12 11 7 6 5 8 3 8 13 15 15 11 20 24 26 23 27 23 21 20 19 18 16 16 13 13
19 18 17 17 16 17 17 16 17 16 16 15 14 13 12 12 14 12 10 10 10 10 9 7 3 4 3 14 16 10 10 12 11 9 10 8 7 7 9 10 10 12 10 12 16 13 12 12 10 19 10 4 10 5 11 14 5 6 9 6 8 7 20 3 10 6 10 8 6 9 10 18 15 6 27 27 30 29 27 25 23 22 19 18 16 16 17 16
20 19 17 17 17 16 16 16 16 16 16 15 14 15 13 13 13 12 10 9 10 10 6 4 2 2 3 21 12 15 19 7 14 14 13 12 8 4 8 9 10 11 14 15 16 12 13 9 7 4 7 4 4 7 12 10 9 9 11 11 9 6 21 7 9 9 19 13 8 10 10 22 15 6 25 23 24 28 27 22 22 21 19 18 18 18 17 18
21 20 18 17 16 16 16 16 16 16 15 15 15 15 15 14 12 11 9 8 8 7 3 4 7 4 4 20 11 12 6 9 16 16 12 13 12 10 9 12 11 12 11 12 19 15 9 5 7 6 5 7 5 4 7 14 15 11 5 6 9 3 15 19 10 14 16 17 3 17 18 5 10 10 27 28 26 27 27 23 20 22 21 19 18 18 16 15
22 20 19 18 16 15 16 16 16 15 15 15 16 15 14 13 10 7 9 7 7 8 6 3 5 7 4 8 11 5 9 9 5 7 7 10 10 11 5 7 9 10 7 8 9 5 6 5 4 4 3 8 5 6 7 8 10 14 4 11 8 8 9 15 16 12 14 14 10 14 18 5 4 6 26 21 26 24 26 21 21 21 20 18 18 18 18 17
23 22 20 18 17 16 15 15 15 14 15 14 13 12 13 8 7 8 4 4 6 7 8 9 7 4 24 9 9 8 6 4 7 10 11 10 10 5 5 11 6 7 3 6 6 5 4 6 5 9 5 3 3 5 6 13 12 5 8 6 13 5 9 18 22 12 15 14 15 14 14 3 7 16 26 27 21 25 26 26 25 22 19 19 18 18 17 16
23 23 21 20 17 16 15 14 14 14 13 14 17 19 12 7 6 3 4 6 4 4 5 7 9 10 8 7 10 7 6 10 6 10 9 7 7 9 7 5 4 4 4 4 11 5 5 4 9 3 7 5 8 11 15 15 7 10 9 8 5 6 14 12 24 27 16 14 14 17 22 8 4 4 7 16 21 25 21 19 20 19 19 17 16 15 15 14
24 23 22 21 18 16 15 14 13 13 12 12 11 5 6 4 4 4 2 3 9 12 9 9 16 11 17 20 7 8 4 7 9 11 8 9 6 5 8 9 7 7 5 11 6 6 6 6 7 10 13 13 9 9 13 13 14 11 5 3 6 5 16 20 18 12 15 15 15 23 11 9 10 10 7 5 16 17 18 17 18 18 20 19 18 18 17 15
24 23 23 22 20 17 14 12 10 7 9 10 9 4 6 3 5 10 7 14 12 15 18 14 22 21 23 14 14 8 5 9 8 9 14 8 6 8 8 8 7 7 8 9 11 5 5 5 13 14 15 14 15 12 9 6 6 8 2 4 12 3 12 20 13 5 3 13 2 4 8 2 5 4 7 15 3 19 21 19 19 21 21 22 22 19 18 16
25 24 23 23 21 19 16 12 9 9 4 7 5 7 8 8 9 6 10 21 10 20 18 23 14 19 23 20 22 13 14 11 8 7 7 11 7 13 5 7 5 11 5 4 3 6 5 14 19 18 17 10 8 10 7 11 5 2 3 3 5 11 8 14 12 10 7 13 4 3 9 9 9 9 4 20 25 21 24 27 27 25 19 17 17 17 15 11
26 24 23 23 22 20 16 13 8 7 8 5 5 3 11 11 3 8 7 12 23 11 17 18 15 20 26 20 21 9 12 12 18 10 11 9 4 13 5 8 8 10 8 3 10 3 7 12 22 21 10 7 8 5 6 5 5 2 5 5 8 5 10 14 19 9 14 10 2 1 3 10 6 7 6 12 21 19 16 18 21 22 26 22 23 23 22 16
25 25 24 23 22 21 17 12 8 5 8 8 7 15 12 6 9 12 7 11 17 20 15 18 17 17 19 20 12 16 15 14 10 11 9 15 12 6 9 8 5 6 12 8 10 13 18 19 10 12 10 10 9 7 5 4 4 4 2 6 6 2 6 6 10 14 8 7 5 8 12 12 8 7 11 5 10 11 11 10 13 15 22 25 21 19 24 26
26 25 24 23 22 21 17 13 6 10 7 6 11 16 19 17 12 7 7 15 10 19 7 9 15 11 20 9 9 15 20 12 14 9 15 16 10 9 13 10 7 11 12 8 5 11 18 21 8 7 8 7 9 3 4 10 2 7 8 9 10 5 6 8 6 5 14 13 8 7 6 11 11 10 3 9 9 17 17 18 18 19 12 12 21 23 19 17
25 25 24 22 22 23 17 11 4 6 6 13 14 13 13 8 10 8 8 9 15 13 5 9 15 19 16 12 11 11 11 22 15 14 18 20 16 17 10 11 16 13 11 8 13 19 20 15 9 11 8 7 8 6 4 7 5 3 10 7 8 7 5 6 8 3 4 5 8 5 8 13 13 12 7 7 8 15 16 16 22 17 15 18 21 21 25 23
24 25 23 22 20 20 10 5 6 11 6 13 2 5 11 10 3 8 12 12 11 11 11 4 17 17 15 7 15 9 7 19 10 9 15 18 20 13 9 13 8 10 9 6 8 14 5 8 6 6 8 8 6 5 7 12 11 9 8 4 5 4 4 3 5 7 8 6 7 4 12 8 9 15 9 2 4 6 16 14 9 24 24 22 19 21 20 19
26 24 22 20 18 11 6 14 14 6 13 11 10 11 12 12 6 11 13 9 17 7 9 7 11 6 5 8 14 19 14 7 8 11 18 19 10 10 16 8 13 7 4 5 9 14 3 6 6 5 3 6 11 9 4 7 11 14 8 8 8 2 6 7 9 5 4 2 13 5 4 6 8 15 9 2 4 5 11 18 16 25 29 26 23 22 22 22
26 24 21 18 19 16 6 6 5 12 9 6 13 13 13 6 13 10 9 10 11 10 12 11 12 6 6 2 14 13 16 7 7 5 10 16 17 15 18 16 9 2 3 7 10 12 9 12 16 13 10 8 8 7 8 10 7 10 9 3 3 3 5 7 4 6 7 7 7 8 4 9 11 11 12 6 3 3 8 10 5 9 22 25 27 21 19 15
25 24 20 17 13 3 4 6 16 16 12 14 14 13 8 11 10 8 8 10 10 9 5 8 10 8 6 9 11 9 14 7 5 3 15 22 15 3 8 6 11 6 8 4 5 14 14 9 12 12 13 13 10 7 8 6 12 4 4 9 8 10 10 8 11 8 9 4 9 7 3 6 9 10 8 5 4 4 2 5 2 7 17 14 13 17 17 15
27 24 20 11 7 7 4 10 18 18 15 11 12 6 9 12 10 8 4 19 11 8 5 5 12 6 10 9 11 8 10 9 5 10 6 9 8 9 4 8 7 6 4 8 13 12 11 3 7 9 9 7 5 3 4 4 2 3 5 6 9 10 14 13 10 9 8 9 10 6 5 7 6 12 12 10 7 10 10 13 4 9 15 18 12 10 12 13
28 27 19 9 12 4 9 14 3 6 13 16 8 8 11 4 6 10 17 8 14 10 4 5 5 9 15 8 11 12 18 8 6 12 16 14 8 17 12 10 8 7 7 5 13 10 9 7 6 4 5 12 4 3 11 5 8 13 10 13 12 7 11 8 10 8 6 10 3 4 4 7 5 13 10 13 9 13 7 16 12 16 17 16 16 15 15 17
29 26 28 19 14 10 17 26 14 15 11 11 6 8 9 9 11 11 14 6 11 4 8 10 3 7 4 8 12 10 10 13 6 9 12 8 9 13 7 17 12 15 10 8 6 7 12 8 3 7 6 5 9 7 6 6 5 8 7 8 10 6 5 7 8 7 7 11 9 4 3 8 9 12 8 8 10 6 5 17 15 18 20 20 18 16 18 17
30 28 20 8 18 24 14 3 7 3 6 8 10 10 10 7 16 10 12 11 12 4 8 14 16 11 7 19 11 11 8 8 11 14 13 9 7 8 7 7 10 5 10 5 9 8 3 11 13 5 8 8 10 12 15 11 2 6 10 12 13 15 17 11 10 12 12 12 8 8 8 11 4 11 5 5 5 8 14 14 12 15 15 15 15 18 17 16
33 23 13 9 11 19 22 16 3 2 2 4 10 10 14 19 8 7 8 7 11 9 13 12 18 13 11 10 9 20 14 14 14 6 14 13 10 11 11 10 7 9 7 8 10 6 8 14 12 7 8 8 11 7 9 5 4 7 5 14 10 12 15 12 15 11 8 4 8 6 9 10 11 9 8 4 4 16 16 16 21 20 18 17 17 15 15 14
18 11 6 14 9 10 19 16 8 6 9 9 11 10 17 18 12 8 14 7 6 6 17 19 9 16 10 12 17 10 10 10 9 8 6 12 11 17 13 12 14 16 14 20 10 7 3 10 7 12 4 12 9 8 9 9 10 8 7 4 13 14 17 8 6 2 8 12 11 6 9 10 11 7 6 6 6 7 15 17 18 18 16 17 18 15 14 14
16 15 13 7 10 7 13 14 17 13 10 12 10 14 17 16 12 9 9 5 7 12 11 14 15 4 5 8 7 10 17 11 9 16 10 8 14 6 7 8 10 17 19 19 3 7 13 13 10 8 8 9 7 8 6 8 14 10 8 9 5 6 11 14 10 6 4 7 14 2 7 5 4 10 16 4 3 5 11 12 15 15 17 19 16 15 16 16
18 12 13 14 23 13 16 17 17 10 13 10 10 10 7 12 8 14 9 17 17 7 13 9 12 4 8 5 12 9 16 12 8 17 11 18 19 11 8 9 7 7 7 6 16 7 10 10 8 3 6 9 14 4 10 4 4 8 11 5 12 7 7 10 13 4 4 6 8 5 6 6 4 8 12 14 7 9 8 12 15 12 14 17 14 15 13 14
7 7 22 16 7 19 19 20 14 15 9 9 10 10 12 16 11 14 15 17 11 11 14 11 9 7 5 15 16 9 11 16 5 6 11 7 16 7 5 4 4 7 6 10 13 7 8 11 13 7 7 6 6 12 7 13 13 4 4 9 3 15 8 7 13 9 15 8 4 10 8 5 6 6 5 10 16 8 7 3 5 11 16 16 14 13 14 13
6 9 12 8 5 15 22 17 12 12 10 12 9 14 5 12 13 11 13 10 14 8 12 5 3 4 4 4 6 7 8 14 12 12 5 9 7 4 10 11 3 3 7 8 6 6 5 7 9 13 8 9 9 10 6 8 9 15 14 7 4 7 5 12 6 6 8 10 7 6 7 11 9 7 4 6 9 6 9 7 5 7 5 6 8 12 11 12
6 4 18 6 7 16 21 14 12 13 10 8 5 8 7 14 10 12 13 9 14 12 15 7 4 4 7 4 7 6 10 12 14 7 7 3 8 7 7 12 16 6 6 10 12 8 9 5 8 8 12 6 8 4 6 7 6 3 4 5 7 4 5 4 10 7 6 10 8 7 8 15 11 7 7 4 7 12 11 14 9 6 5 7 8 9 12 13
6 8 14 13 16 18 22 16 15 8 10 7 12 10 13 11 15 18 19 17 14 21 12 10 4 6 6 8 6 6 6 6 10 12 7 8 5 7 4 17 15 12 9 5 4 2 10 8 11 4 7 8 10 9 3 6 4 6 9 14 7 6 14 12 7 8 4 6 12 10 11 8 11 7 4 4 5 7 6 13 15 8 7 5 5 7 8 12
6 10 19 19 14 11 18 8 6 9 9 11 5 13 17 23 18 20 20 12 17 8 7 4 5 3 5 7 6 9 7 5 3 10 9 11 9 5 7 14 11 10 8 6 8 5 9 8 4 9 10 8 10 6 9 13 9 11 10 8 10 9 6 12 11 12 11 4 6 3 5 11 11 4 7 14 14 10 12 12 12 10 8 7 7 8 10 11
8 10 16 11 19 14 18 13 13 4 11 8 8 14 10 17 16 15 18 13 21 4 6 6 10 3 4 1 5 4 3 7 6 4 9 6 8 7 8 7 5 10 6 7 9 8 11 8 13 5 12 19 17 17 13 11 16 8 5 8 4 6 8 3 7 5 11 3 8 14 8 6 5 6 4 13 16 19 16 12 12 14 9 8 8 7 8 8
13 8 7 16 20 15 11 12 7 6 5 6 7 7 9 11 10 13 12 14 8 3 3 8 7 7 8 4 5 5 9 5 8 15 4 7 13 8 14 9 11 9 5 6 10 6 13 3 8 7 7 6 9 7 7 10 10 9 4 8 7 11 7 12 6 7 9 4 7 7 7 8 10 7 13 9 13 11 12 13 9 9 8 11 10 11 9 6
12 12 17 18 22 16 10 9 6 9 5 5 6 11 6 12 9 5 4 12 14 12 19 14 24 12 15 10 8 8 9 12 15 10 12 9 8 8 9 13 8 9 7 13 8 8 8 4 7 10 15 15 9 8 4 4 8 9 12 6 8 4 6 9 10 8 8 3 4 5 14 5 7 14 10 9 8 9 7 7 9 11 6 8 8 8 6 4
8 16 13 19 19 14 16 13 20 18 14 6 6 9 6 8 9 8 13 13 17 13 15 24 21 21 13 9 4 11 14 7 9 14 12 5 12 12 10 11 11 8 11 10 7 11 6 5 2 10 6 9 8 4 4 4 6 6 7 10 7 6 5 9 9 4 7 12 8 5 4 8 9 11 15 11 10 7 7 5 4 7 4 10 10 9 9 10
15 6 7 5 5 11 16 18 22 19 15 11 13 13 12 14 18 15 9 8 5 21 12 14 24 20 16 7 10 16 16 12 17 12 12 13 7 13 10 10 7 3 9 5 5 10 10 6 4 3 2 3 4 5 9 10 5 5 7 5 7 5 10 8 2 3 6 5 8 3 9 11 4 6 8 9 9 11 11 10 6 6 9 8 10 10 10 8
8 7 6 11 10 5 6 13 14 11 19 18 12 20 17 17 18 18 15 11 17 20 14 12 15 20 20 20 14 12 17 10 11 8 12 11 6 7 9 9 9 13 11 7 8 4 12 3 3 4 4 7 7 8 10 13 13 14 13 11 4 8 4 7 6 5 14 7 5 13 14 11 4 5 5 5 3 9 8 8 15 18 12 13 14 12 10 11
15 10 14 11 6 6 11 12 10 13 18 21 14 14 21 19 16 17 25 21 13 17 15 16 12 17 16 19 18 17 7 4 2 6 7 7 11 10 6 4 5 10 10 4 2 6 12 6 4 4 7 5 4 8 12 11 10 9 12 15 13 5 14 8 8 6 11 11 7 12 15 12 10 7 7 7 6 6 15 17 13 11 14 14 12 10 9 8
8 3 5 9 16 19 14 17 13 15 23 23 20 16 15 20 17 12 20 20 20 12 12 9 8 13 16 17 18 14 10 9 8 7 7 5 6 5 5 7 5 3 8 8 4 5 10 5 5 5 7 6 4 8 7 9 12 14 15 17 18 11 13 11 14 9 8 9 4 14 13 8 10 12 7 14 15 18 15 12 13 13 11 15 15 10 10 10
8 4 3 4 13 13 12 12 18 18 21 18 18 16 18 13 13 9 11 16 17 15 11 10 6 14 12 18 15 11 11 10 11 13 11 13 8 8 4 6 1 2 3 5 1 6 5 7 5 5 8 6 6 7 7 7 9 10 10 13 9 8 11 12 19 21 13 4 16 13 3 2 5 8 19 17 17 18 21 16 12 13 12 12 13 14 13 14
Wind_Speed
11 11 11 12 12 12 12 12 12 11 12 11 11 11 11 11 11 11 11 11 11 11 12 11 12 12 12 12 13 13 11 6 10 5 3 14 9 17 7 11 7 11 5 3 2 1 2 1 3 4 2 0 2 0 3 2 2 1 2 2 5 6 5 4 1 1 2 6 9 12 5 2 2 4 1 8 11 10 9 9 7 13 12 12 14 18 17 15
12 12 12 11 11 11 11 11 11 11 11 11 11 11 11 11 11 11 11 11 9 10 11 11 11 12 12 12 12 12 9 6 9 9 17 7 12 12 15 15 15 9 9 2 4 3 1 2 5 2 2 1 1 3 1 2 2 3 1 3 9 4 5 1 0 4 3 6 7 9 8 2 0 1 1 5 2 7 11 6 11 14 14 14 15 16 16 14
12 12 12 12 11 12 12 11 11 11 11 11 11 10 11 11 11 10 10 10 9 9 11 11 11 12 11 11 12 10 8 6 5 9 14 20 17 14 15 14 14 9 11 4 4 4 6 1 2 0 2 2 2 4 1 4 0 4 4 6 7 3 5 3 2 6 4 6 6 6 4 4 2 1 1 2 4 9 12 8 6 14 14 14 14 14 13 11
12 12 12 12 12 11 11 11 12 12 12 11 11 11 11 10 10 10 10 10 10 10 10 11 11 11 11 11 11 6 4 4 3 4 4 2 20 18 16 15 10 13 5 2 3 3 0 2 3 2 2 4 4 3 2 4 1 2 3 4 4 4 5 5 4 6 5 5 2 3 4 5 8 3 0 4 7 1 7 13 15 16 17 16 15 15 11 11
13 12 12 12 11 11 11 11 12 11 11 11 11 11 10 11 10 10 9 9 9 9 10 10 10 11 11 11 10 3 3 1 1 2 2 0 14 19 16 13 10 6 6 3 2 1 1 2 1 1 1 3 3 1 3 2 4 0 5 5 7 6 5 9 9 9 6 8 3 0 2 3 5 4 3 1 1 7 8 6 16 19 21 21 18 13 12 11
13 12 12 12 12 11 12 12 12 11 11 11 11 10 10 10 10 10 9 10 9 9 10 9 10 11 11 11 6 3 0 2 2 3 3 4 12 16 16 12 10 6 4 2 2 1 1 0 3 1 2 3 3 5 3 5 2 4 5 5 6 8 7 4 5 3 2 4 8 1 1 0 3 5 4 3 2 3 3 11 13 16 16 17 15 14 14 12
13 13 12 12 12 11 11 12 11 11 11 11 11 11 10 10 10 9 9 9 9 8 9 9 9 10 10 10 2 2 1 7 3 7 3 3 9 13 13 9 9 5 4 4 3 2 3 2 2 3 2 4 4 4 7 2 4 5 7 5 8 6 10 12 8 5 5 5 3 3 1 1 2 3 2 3 3 7 15 15 17 17 16 15 17 13 13 11
13 13 13 13 13 12 12 12 12 11 11 11 11 11 10 10 10 10 9 9 8 8 9 8 8 9 8 4 1 1 1 7 11 1 5 8 7 10 11 6 7 5 5 7 6 4 1 1 4 1 3 4 3 4 2 2 2 5 6 7 10 7 9 8 7 6 5 5 6 2 1 4 3 2 4 2 10 15 16 16 17 17 16 13 14 13 12 11
13 13 13 13 13 12 12 12 12 11 11 10 10 10 10 10 10 9 9 9 8 8 8 8 7 7 6 2 1 2 6 7 4 7 8 8 7 8 10 4 4 8 5 4 5 3 2 3 3 4 4 3 4 6 4 1 6 4 10 8 7 7 8 8 4 5 6 3 4 4 3 4 6 5 3 7 9 14 15 16 17 17 17 16 14 13 12 10
13 13 13 13 13 13 12 12 12 12 11 11 11 10 10 10 10 9 8 8 8 7 8 7 7 6 3 1 1 0 3 5 3 8 8 9 8 8 5 4 7 6 5 5 3 5 5 5 6 2 2 6 2 5 3 2 6 4 6 6 7 11 10 8 10 6 4 3 4 4 3 4 2 4 2 2 13 15 16 16 14 17 16 15 13 12 12 14
14 13 13 13 13 13 13 12 12 12 11 11 10 10 10 10 10 10 9 8 8 7 7 7 6 4 3 2 1 4 5 4 1 5 8 9 9 8 9 6 8 6 6 3 8 10 9 8 3 2 2 4 2 4 1 3 2 5 7 6 7 6 5 5 2 5 2 4 3 4 5 3 2 1 11 8 9 16 19 16 14 13 14 12 12 10 8 9
14 14 13 13 13 13 13 13 12 12 11 11 10 10 10 10 9 9 9 8 8 7 6 5 4 1 2 1 3 8 3 1 4 4 7 9 7 9 8 7 8 7 8 6 4 3 3 7 1 2 3 1 2 4 4 3 4 6 5 4 6 5 6 3 1 3 1 3 3 1 2 6 1 3 13 13 11 13 18 14 13 13 12 11 10 9 8 9
15 14 14 13 13 13 13 13 12 12 11 11 10 10 10 10 9 9 8 8 6 6 4 4 3 1 1 2 10 10 2 1 3 4 4 5 3 4 5 5 8 6 6 4 5 7 9 6 3 6 8 3 1 1 4 6 4 5 3 1 3 5 5 7 1 3 1 2 1 5 5 9 7 1 14 15 14 13 16 13 13 12 12 10 10 10 8 7
16 14 14 13 13 13 13 12 12 12 12 11 11 10 10 10 10 9 7 7 8 8 7 5 0 1 1 6 6 4 4 7 6 4 6 5 4 3 5 5 6 7 5 6 8 6 4 4 6 12 4 2 3 3 6 4 2 2 5 2 2 4 7 1 3 2 4 3 2 4 3 10 8 4 16 14 19 19 16 15 14 13 12 10 9 10 10 10
16 15 14 13 13 13 12 12 12 12 11 11 11 11 10 10 10 9 7 6 7 8 4 3 1 0 0 8 7 9 14 5 8 9 8 6 4 0 4 5 5 7 8 8 4 5 7 6 4 0 1 1 1 3 6 4 3 2 4 4 4 2 9 4 4 4 7 2 6 5 4 11 9 2 17 14 16 18 16 12 13 12 11 10 9 10 10 11
17 16 15 13 13 12 12 12 12 12 11 11 11 12 12 11 9 8 7 6 5 5 1 2 3 2 2 7 3 7 3 4 7 11 8 9 7 6 6 7 5 6 6 5 9 7 4 2 3 2 2 4 2 1 3 7 6 5 1 3 4 2 6 9 6 6 9 5 1 9 6 2 5 6 19 18 16 15 15 11 11 13 13 11 9 10 9 9
18 16 15 14 13 12 12 12 12 12 11 11 12 12 12 10 8 4 6 5 3 3 3 0 2 3 1 3 4 3 3 3 3 3 4 4 7 6 2 3 4 6 5 6 4 4 3 1 1 1 1 2 2 3 3 4 5 5 2 2 2 4 5 5 9 7 6 6 4 6 6 2 2 5 17 11 15 15 15 13 12 12 11 11 10 10 10 10
18 17 16 14 14 12 12 12 11 11 12 12 10 9 7 6 4 5 2 2 2 2 3 4 3 2 9 2 3 3 1 1 3 4 7 5 7 4 3 3 4 4 0 3 3 2 1 1 0 4 2 1 1 2 2 5 5 1 3 3 5 1 5 11 5 5 7 9 10 8 8 1 3 11 17 18 14 15 15 15 15 14 12 12 11 11 10 10
19 18 17 16 14 13 12 11 11 11 11 11 13 13 7 2 2 1 1 2 1 1 1 1 2 2 2 3 4 5 2 6 3 5 4 3 3 4 3 2 2 2 1 1 5 1 1 1 4 1 3 2 3 5 7 8 4 5 4 4 2 3 6 4 10 16 8 6 8 9 10 5 1 4 5 11 14 16 14 12 11 12 12 11 10 9 9 7
19 19 18 17 15 13 12 11 11 10 10 8 5 1 2 0 0 0 0 1 4 7 6 5 8 4 11 12 3 2 2 1 3 6 5 4 3 2 3 2 2 1 2 3 2 2 3 2 4 5 7 8 6 6 8 8 8 7 2 2 3 3 6 7 10 7 8 7 9 13 7 6 6 4 4 4 2 6 10 11 10 10 11 11 11 11 11 9
19 19 18 17 16 14 11 10 8 6 7 5 5 1 1 1 1 2 2 8 7 9 11 7 12 11 11 6 7 4 1 3 4 4 8 4 3 4 3 3 2 4 4 5 5 2 2 2 7 9 10 10 10 8 5 3 4 5 1 1 7 1 5 8 5 4 0 5 1 2 5 1 3 2 5 10 2 8 12 12 11 13 13 12 14 12 12 10
19 19 19 18 17 15 13 10 8 8 3 3 3 1 2 4 4 1 1 6 5 14 12 15 8 10 10 11 14 5 7 3 5 5 2 7 3 6 2 3 3 6 3 0 1 2 1 6 11 12 11 5 4 4 4 7 4 0 0 1 3 4 4 9 4 5 4 6 0 1 6 5 4 4 3 12 16 11 12 17 17 16 12 9 9 11 10 7
20 19 18 18 18 16 13 11 6 5 3 1 1 2 5 3 2 4 1 4 10 4 10 10 7 12 13 8 8 4 6 6 8 5 4 5 2 7 3 2 4 4 1 1 4 1 3 6 15 15 4 3 4 2 4 1 2 1 3 1 4 2 3 6 10 4 7 3 1 1 2 4 3 4 3 7 13 11 11 11 14 14 16 13 14 14 14 11
20 19 19 18 17 17 14 9 6 2 4 4 3 7 7 4 5 7 3 2 6 10 7 9 10 6 9 6 3 9 8 4 4 7 4 5 5 3 2 4 3 1 5 4 5 6 9 12 2 3 4 6 5 5 2 1 1 2 1 2 1 1 2 3 5 7 4 3 3 3 6 6 4 3 2 1 2 6 5 5 5 7 11 15 12 11 15 17
20 20 19 18 18 17 14 11 3 5 3 3 6 9 11 10 6 3 1 4 2 6 3 3 5 4 8 3 4 3 4 2 7 3 5 8 4 3 4 2 2 6 5 3 2 3 11 13 6 4 4 5 5 3 3 5 1 3 3 5 5 2 3 5 4 3 6 5 4 4 1 3 5 2 1 2 2 4 7 10 11 12 7 4 10 14 11 10
19 19 19 17 17 18 14 5 2 3 3 6 6 6 7 5 5 4 1 2 5 5 1 2 4 5 4 4 4 4 6 7 8 5 8 9 8 5 2 2 4 7 6 3 5 4 8 9 6 7 5 5 6 3 3 4 2 1 4 4 5 3 4 4 6 1 0 1 3 1 3 3 6 6 4 1 4 10 4 8 12 10 8 9 10 10 13 13
19 20 19 17 16 16 4 1 2 6 3 5 1 4 7 6 1 3 3 3 4 3 3 1 4 1 1 3 7 4 1 7 5 4 7 7 8 4 3 7 1 1 2 1 2 4 1 2 4 4 6 5 3 3 3 8 6 2 4 3 3 3 2 1 2 2 2 2 3 2 4 3 2 7 3 1 3 5 10 9 6 7 9 11 10 10 10 10
20 19 18 16 14 9 3 4 8 2 6 5 6 6 8 7 1 5 3 1 1 2 1 1 3 1 0 3 9 6 6 2 2 4 11 9 5 3 5 5 6 4 1 1 4 7 0 3 3 3 1 2 5 4 2 5 4 4 5 6 5 1 4 5 6 3 1 0 6 3 3 2 2 6 5 1 2 1 8 12 10 14 14 13 13 12 11 13
20 19 17 15 15 13 3 2 1 6 4 3 8 8 5 3 5 3 2 2 4 1 2 3 5 1 2 1 4 7 7 1 2 2 2 7 9 6 6 9 3 1 2 4 5 4 2 6 9 8 5 4 4 4 5 7 1 5 5 1 1 2 3 4 2 3 3 3 2 4 1 1 4 5 6 3 1 2 3 7 3 6 14 14 14 12 11 9
20 19 16 14 10 1 1 3 7 10 5 8 8 7 4 4 2 1 1 2 1 1 1 1 2 3 3 3 3 5 7 1 2 1 4 7 7 1 2 3 5 2 3 1 2 8 6 6 7 5 5 6 6 5 5 4 7 2 2 2 3 6 5 3 6 4 4 0 4 2 1 1 1 4 3 1 0 2 1 3 1 4 12 9 7 9 9 7
21 20 16 9 1 3 2 4 10 10 8 6 7 3 3 4 2 2 1 5 2 2 0 2 3 3 4 5 4 3 6 2 0 4 1 2 4 2 2 2 3 2 2 3 5 6 6 1 1 2 5 3 3 0 2 2 1 1 0 1 3 4 8 6 4 5 2 2 4 3 3 5 2 4 5 5 4 6 4 8 3 3 10 8 8 6 6 6
22 21 15 5 6 1 3 6 2 1 7 9 5 4 4 1 3 3 5 4 1 2 1 1 3 1 8 5 5 5 6 2 3 4 7 5 5 6 5 5 2 0 3 1 6 5 4 2 3 3 2 8 1 1 5 2 3 7 5 6 6 2 4 2 4 2 0 3 1 2 1 3 2 5 5 7 6 5 2 6 6 9 10 7 8 9 7 7
23 21 22 11 9 4 9 15 6 8 7 6 2 3 2 4 2 4 4 2 2 1 2 3 1 4 1 3 5 5 5 7 2 4 6 2 5 8 4 8 7 6 3 2 2 2 5 3 2 4 4 1 5 2 1 2 2 5 3 2 5 2 1 1 2 1 3 5 4 3 0 1 3 6 5 5 5 4 3 7 5 11 12 10 9 9 8 8
23 22 9 4 9 12 7 1 3 1 3 4 4 5 5 2 4 5 5 4 4 1 4 3 8 3 4 6 4 4 3 4 6 4 8 3 4 3 3 4 5 3 2 1 1 3 1 3 5 2 1 2 4 6 8 4 0 2 5 6 6 7 4 3 3 4 5 5 3 5 3 2 2 2 2 2 3 3 9 7 6 10 10 9 9 9 9 9
26 17 7 4 5 10 13 8 1 1 1 1 5 4 5 6 2 2 3 3 2 2 4 5 8 7 4 2 2 5 5 2 6 3 6 7 4 3 4 4 4 4 4 3 3 1 4 5 4 4 5 2 5 3 4 3 1 2 2 6 5 4 7 3 6 5 2 0 2 1 2 3 3 4 3 1 2 6 11 11 12 11 11 11 10 9 8 8
13 5 3 4 4 5 11 7 5 4 5 4 4 1 6 6 3 2 3 3 1 2 9 11 5 8 4 4 2 5 3 2 3 1 1 5 5 7 6 4 5 10 6 6 3 1 1 2 3 7 2 5 5 4 3 5 1 2 2 0 5 6 9 4 2 0 5 5 3 1 3 4 5 3 5 3 3 5 10 12 11 11 10 11 10 8 9 7
7 7 4 3 4 4 8 9 9 7 5 6 4 4 6 4 5 3 2 1 1 6 4 4 4 1 1 2 1 5 8 6 2 5 2 3 4 2 3 3 5 9 12 9 0 3 5 4 6 5 5 4 4 3 3 4 6 4 3 4 1 3 5 5 3 1 1 3 4 1 3 2 1 2 6 3 2 1 7 8 10 10 11 12 10 9 9 10
7 4 6 6 12 7 10 11 11 5 6 5 3 6 3 3 3 7 3 6 7 2 3 1 3 1 3 1 3 3 7 6 4 5 4 6 3 3 4 3 5 1 5 2 6 2 4 2 2 1 2 5 8 2 4 2 1 3 4 2 3 1 0 4 5 0 0 1 2 1 1 1 1 2 5 6 3 5 1 7 9 9 9 11 10 10 9 9
3 2 6 8 2 12 11 12 7 7 4 2 3 1 4 5 4 6 6 5 3 4 4 5 3 2 2 4 6 2 5 2 3 1 3 1 4 2 2 1 1 4 3 6 5 1 3 3 4 3 2 3 3 5 3 7 9 2 2 3 0 5 3 3 4 3 5 2 1 3 4 0 3 2 4 5 2 5 4 0 3 3 5 8 8 7 8 8
3 2 4 4 3 9 13 9 6 5 3 5 4 3 2 3 4 6 6 3 2 2 4 2 1 0 1 2 3 3 4 9 5 5 2 2 1 1 5 6 1 1 4 5 2 2 1 2 2 4 5 2 2 2 2 1 4 7 7 3 1 1 2 5 2 2 3 3 3 1 2 2 3 3 3 4 2 1 5 4 4 4 3 3 4 5 6 7
2 1 5 3 5 8 11 7 4 5 2 3 3 2 2 3 3 4 8 6 4 5 6 2 1 2 3 1 2 2 4 4 6 2 2 1 1 1 1 4 7 2 1 6 7 3 3 1 3 2 4 1 2 1 4 2 1 1 2 2 3 3 2 2 3 3 2 4 2 2 3 7 6 3 5 2 5 7 7 9 5 4 4 4 4 4 6 7
2 2 5 4 7 7 10 5 2 2 1 3 4 2 2 4 5 9 7 7 8 6 5 3 2 3 3 3 3 3 2 2 4 5 3 4 3 3 1 10 8 7 2 1 1 1 3 3 5 1 2 2 4 1 1 3 2 4 5 6 3 2 6 5 2 3 2 1 4 4 4 1 4 4 3 0 2 4 4 8 9 5 4 4 3 3 3 5
1 4 9 6 6 5 7 2 3 2 3 4 2 5 6 6 7 7 7 7 6 3 1 1 2 0 1 1 3 4 3 1 2 4 2 2 4 2 3 6 5 6 4 1 2 1 6 2 2 3 5 4 4 2 6 8 6 6 5 4 4 4 1 5 4 6 5 0 2 0 1 2 1 2 4 4 7 5 4 7 8 6 5 4 4 4 5 6
2 4 7 4 12 7 9 3 5 3 3 3 2 5 4 4 5 5 5 7 5 0 2 0 4 2 1 0 2 1 1 1 1 2 2 2 0 1 4 6 4 2 3 2 2 3 2 2 6 3 4 8 8 9 6 6 6 2 1 3 2 3 5 1 3 2 4 1 4 7 3 1 1 4 1 4 6 11 10 7 7 9 5 5 5 4 3 5
4 2 2 7 11 9 4 3 3 1 2 2 1 3 3 3 6 8 5 5 5 1 0 3 3 3 2 1 1 1 5 2 1 8 1 2 4 2 9 7 8 5 2 1 4 2 5 1 2 2 2 0 2 1 2 4 4 3 1 3 4 5 3 4 2 3 4 1 4 2 1 3 3 1 5 5 8 7 6 9 6 6 5 6 4 4 3 2
3 3 5 7 7 5 3 4 2 5 1 2 2 5 1 3 3 3 3 6 5 7 9 4 11 7 6 5 3 4 5 6 6 1 4 4 4 1 1 7 6 5 3 8 3 3 2 1 3 4 7 6 3 2 2 1 2 3 6 4 4 2 3 5 4 3 3 1 2 2 7 2 5 9 7 5 4 6 5 5 6 6 4 3 3 4 4 3
1 5 3 7 6 5 6 5 10 7 5 2 1 3 3 3 3 2 10 2 7 2 5 13 8 6 4 3 2 6 7 5 6 6 5 2 5 3 7 7 7 6 9 6 3 4 2 2 0 7 4 5 4 1 1 2 2 1 4 5 3 4 1 5 3 1 4 5 1 2 2 4 5 7 8 6 5 5 5 3 2 4 2 2 4 5 6 5
5 2 3 1 1 4 8 8 9 8 9 6 4 4 6 8 11 6 4 3 4 9 4 6 14 12 11 4 4 5 7 6 9 4 8 6 4 7 5 6 3 3 3 1 1 4 4 2 1 2 1 2 2 3 4 4 3 2 5 4 5 2 6 4 1 1 3 2 3 1 4 6 1 3 4 4 4 5 6 6 4 2 3 4 6 7 6 6
3 2 1 5 2 2 3 6 8 7 12 11 1 9 9 10 10 7 4 3 8 9 8 5 6 12 13 11 6 3 6 3 5 3 4 6 3 3 4 5 6 9 7 4 4 1 4 1 1 3 3 4 4 5 7 9 6 7 8 7 3 4 3 5 4 3 7 4 4 8 10 7 2 3 4 3 3 4 4 5 9 11 7 7 7 6 4 3
5 3 5 3 1 3 6 7 4 8 9 11 5 8 8 8 8 9 11 9 3 5 6 9 6 9 10 12 10 6 2 3 1 1 4 4 6 4 1 2 2 6 5 2 0 3 4 1 3 2 3 2 3 6 8 7 8 5 8 10 8 4 10 5 3 3 8 7 4 7 10 7 5 4 4 4 4 4 9 11 8 5 8 8 7 6 6 5
2 1 1 3 6 7 6 9 7 7 10 11 8 7 6 10 6 5 10 10 9 4 3 4 4 6 10 11 10 8 4 2 2 2 5 3 3 2 2 2 2 1 4 3 2 2 4 1 3 2 3 1 1 5 4 6 9 9 9 11 12 7 8 5 6 4 2 5 3 9 7 4 5 7 4 8 10 12 10 8 8 7 6 7 7 6 7 7
1 2 1 1 4 6 3 3 8 7 9 8 8 9 5 7 6 4 3 7 9 8 5 5 3 8 5 11 9 4 6 5 6 7 5 5 5 5 3 3 1 0 0 1 0 1 1 3 2 2 3 2 2 4 5 4 4 5 5 6 5 5 7 6 11 13 7 2 6 6 2 0 2 4 8 8 10 12 13 9 8 9 8 8 9 9 9 9
Wind_Direction
322 318 319 318 317 318 317 316 316 315 315 315 314 311 310 309 312 309 309 310 312 316 312 307 305 309 310 312 316 316 329 325 309 307 244 241 195 221 204 215 231 214 189 194 269 298 310 247 250 260 313 75 261 247 237 202 182 100 200 157 248 218 238 223 184 336 278 334 318 322 314 69 49 331 359 60 64 74 60 59 61 53 57 97 113 120 133 142
321 318 317 314 312 311 311 310 308 307 309 310 311 311 310 312 310 308 307 311 315 308 303 305 307 306 311 314 314 322 336 302 287 271 237 222 191 204 223 235 251 277 136 156 209 204 189 279 236 205 155 261 230 225 166 270 155 144 195 152 238 195 244 45 215 271 341 291 288 290 290 40 297 163 342 83 56 94 71 61 91 80 79 93 108 124 133 140
320 318 317 317 314 312 311 311 309 308 306 307 304 308 310 311 310 310 309 313 316 307 302 306 308 309 305 311 316 338 336 308 273 258 257 230 216 200 213 223 242 168 157 163 211 179 191 202 18 74 231 225 273 234 182 255 309 227 169 243 246 219 256 259 238 266 233 254 300 319 317 41 303 308 326 127 153 106 118 122 80 105 115 114 121 125 132 131
318 319 316 310 311 307 307 305 305 304 305 305 306 306 307 307 307 307 313 317 309 306 312 309 309 304 308 314 321 336 316 280 291 250 251 189 196 201 205 211 194 176 165 181 134 169 116 347 344 352 289 207 275 208 228 254 164 267 150 216 237 221 253 266 235 253 264 256 271 262 310 17 322 325 339 166 94 107 159 157 150 147 135 130 132 133 132 121
321 318 314 309 305 306 305 303 303 304 302 301 302 301 304 304 305 305 306 300 303 319 308 308 303 307 312 313 323 341 315 29 216 229 257 225 188 196 198 195 191 177 175 129 135 258 239 255 7 332 206 258 245 277 240 250 216 12 213 221 232 260 263 258 259 260 260 264 246 229 56 288 305 6 9 144 201 202 186 195 139 143 142 141 139 134 120 126
317 315 313 308 305 306 307 306 304 305 303 302 301 301 301 301 301 304 306 308 321 312 311 311 310 312 312 318 307 282 283 90 284 276 358 328 182 188 191 184 186 158 140 181 139 93 114 299 149 175 247 199 219 183 260 207 178 247 281 272 246 242 241 265 252 267 243 285 287 336 220 276 50 315 321 39 254 216 156 125 127 124 125 124 122 124 130 136
318 314 310 307 305 305 306 302 300 298 300 300 301 303 305 302 301 302 302 306 305 307 313 312 311 313 324 315 258 190 219 275 290 250 46 131 172 172 174 164 150 140 138 138 161 186 174 187 152 225 252 238 255 208 244 247 170 203 254 258 267 236 238 248 255 249 260 251 245 223 49 10 30 341 326 47 341 126 113 117 118 123 121 119 125 126 133 135
319 315 310 305 304 306 305 303 300 298 299 300 300 301 303 301 303 307 308 308 308 311 308 311 313 320 335 338 161 278 150 251 244 184 129 98 105 129 126 129 148 146 153 184 166 183 120 205 212 227 222 210 220 185 255 257 203 212 253 245 251 251 245 243 230 240 260 252 243 214 269 259 185 216 94 66 112 110 115 115 117 118 114 108 112 120 126 128
321 314 311 305 304 308 305 302 299 298 298 299 298 299 300 302 302 306 304 304 306 304 302 313 319 319 324 262 284 331 257 233 217 152 134 120 124 118 133 144 172 158 186 183 185 140 148 248 226 192 255 205 243 250 272 237 304 223 230 250 260 252 252 250 253 239 247 242 227 272 258 261 247 139 65 141 108 112 115 115 119 117 115 120 126 133 137 137
322 317 310 307 305 306 303 300 299 299 301 301 301 301 302 303 302 300 302 301 297 298 299 310 320 338 331 230 226 40 260 164 116 149 143 134 125 134 175 158 161 167 166 206 139 193 193 217 185 197 272 278 251 253 241 153 233 212 257 247 245 249 243 255 253 272 268 241 226 231 271 273 291 126 75 313 126 120 115 119 123 123 127 134 140 147 148 145
323 318 313 308 308 307 302 300 299 301 302 298 299 301 301 301 301 301 303 299 298 299 303 305 315 347 305 275 125 217 254 109 128 134 146 140 136 143 190 175 176 171 184 161 199 196 214 220 216 354 299 230 321 290 252 216 323 301 262 272 263 263 250 247 286 279 309 299 214 208 258 267 349 118 161 155 147 132 125 130 129 127 132 138 139 141 147 147
326 321 316 314 309 303 302 301 301 303 300 298 297 299 298 299 299 298 295 297 296 292 289 304 340 274 253 243 194 230 277 79 142 158 159 148 161 191 181 178 180 185 177 190 237 254 263 252 264 274 235 277 339 297 289 246 307 271 273 281 280 322 321 297 215 278 133 266 269 208 355 312 22 241 156 142 140 131 125 131 131 130 132 134 140 141 154 158
331 325 321 316 307 303 301 304 304 300 299 297 296 294 296 293 292 293 293 287 280 288 304 315 327 268 282 313 225 232 249 345 152 182 191 186 153 177 186 181 190 201 180 191 227 222 218 217 188 226 238 239 207 211 276 314 285 296 322 191 330 357 315 273 280 233 218 247 163 80 290 265 259 122 145 132 136 133 127 134 140 141 141 145 150 153 151 158
337 327 322 316 310 307 307 307 303 300 298 300 298 297 300 301 296 294 286 276 276 273 277 288 352 321 196 246 275 261 235 166 204 178 214 195 133 215 206 219 203 209 216 211 242 242 250 234 200 226 214 224 282 285 347 320 342 337 273 27 320 358 271 244 206 274 288 203 168 103 233 268 258 126 160 153 146 147 146 155 151 145 144 149 153 158 162 175
340 335 328 322 316 312 308 303 302 300 302 303 304 299 290 290 289 287 287 278 259 260 268 283 198 103 353 269 265 266 267 143 177 200 200 153 170 287 226 233 229 218 219 219 236 238 235 249 242 331 265 237 52 24 324 343 325 299 20 315 330 164 273 286 262 219 226 289 128 131 236 243 261 174 171 156 152 147 148 154 145 144 149 156 163 163 165 178
343 341 335 326 321 314 309 306 304 308 308 303 299 292 286 282 284 281 274 266 268 255 264 331 190 199 10 290 260 318 341 131 202 197 209 163 171 199 208 208 226 236 231 249 233 253 265 226 214 195 306 4 28 84 8 12 338 345 112 265 284 314 270 345 275 221 213 217 180 174 227 325 299 207 169 156 155 149 144 152 149 150 154 160 167 167 170 170
346 343 340 331 324 319 314 313 311 308 306 302 294 286 285 277 269 275 290 255 245 198 209 271 113 181 3 238 312 309 223 228 169 159 195 201 175 204 221 214 240 238 240 274 280 308 306 256 285 90 9 195 148 88 39 4 318 309 6 235 213 237 295 294 292 276 238 181 234 221 215 227 269 118 147 149 152 151 149 157 154 155 160 166 166 172 173 178
346 345 342 339 330 324 317 312 310 308 306 298 286 285 282 279 283 304 250 232 217 214 229 258 241 298 274 335 286 233 176 155 177 195 179 203 176 203 195 223 239 211 306 332 332 193 294 296 1 193 1 13 71 76 123 237 196 233 316 336 316 274 217 243 277 279 165 205 192 215 215 199 290 140 153 165 162 147 158 163 161 161 161 164 173 176 177 180
346 345 343 340 335 325 319 315 313 313 309 311 302 281 273 77 8 219 230 165 128 43 0 240 125 150 152 207 270 316 252 204 120 132 221 182 221 198 203 247 278 111 250 108 281 183 330 0 20 32 251 277 236 167 192 224 172 229 211 213 198 276 284 250 251 260 207 165 191 191 203 198 235 138 130 158 172 163 161 150 150 158 164 163 167 171 173 187
346 344 343 341 337 329 323 319 318 320 328 324 336 16 108 13 12 29 324 241 225 214 232 187 209 273 310 290 259 233 302 102 137 215 198 197 133 171 246 207 270 135 115 192 284 276 134 181 211 216 228 230 241 195 206 221 218 245 253 202 232 247 284 284 291 263 148 135 184 201 178 157 208 159 57 151 156 125 135 146 153 160 163 170 173 173 176 183
344 344 342 340 336 332 321 321 317 335 332 319 307 320 308 149 59 303 230 225 223 228 237 234 193 215 238 291 300 334 22 269 199 204 211 165 148 112 245 153 187 227 225 194 178 270 91 205 250 230 221 211 222 218 214 272 263 229 148 52 308 25 312 295 312 356 76 110 352 59 94 95 252 269 170 133 96 172 159 155 160 170 177 180 174 172 173 188
342 341 341 339 336 334 326 314 327 324 335 316 319 254 271 225 197 225 348 307 257 221 226 239 226 249 251 249 264 269 292 247 224 224 254 140 201 159 278 172 153 214 282 22 15 328 109 211 240 235 229 229 259 266 221 202 199 1 243 241 328 306 250 291 318 10 354 82 254 314 146 186 213 226 142 163 165 191 180 167 173 171 179 177 174 170 165 165
340 340 339 338 336 332 328 312 306 352 322 264 215 208 238 232 14 328 263 265 284 201 213 228 239 240 258 252 248 180 224 233 209 225 212 154 140 191 167 175 192 222 230 119 204 216 287 276 241 237 200 173 278 263 179 66 58 217 345 35 266 245 33 307 313 356 9 95 195 186 160 264 272 285 233 212 168 184 186 182 172 172 171 175 176 171 171 170
339 339 336 335 334 333 322 327 312 312 211 219 248 224 249 297 316 338 351 270 295 295 202 217 203 224 242 219 206 185 204 222 199 216 210 145 164 175 162 184 208 229 240 199 192 183 220 245 287 272 183 158 202 232 140 74 270 307 173 213 205 142 225 199 274 331 332 19 103 72 32 332 8 42 5 337 222 133 190 172 205 215 189 180 172 167 172 172
335 336 336 335 334 330 328 313 325 242 199 178 245 247 254 263 261 197 265 326 332 278 203 226 193 221 233 163 243 194 203 221 208 179 179 163 157 116 218 148 137 238 229 200 156 236 266 263 267 270 214 178 177 219 224 128 352 320 254 198 217 177 182 286 320 23 21 341 343 104 18 309 300 318 242 301 92 169 191 179 199 202 192 166 173 181 183 173
331 333 335 334 330 332 310 329 271 340 265 258 242 283 300 291 218 181 111 67 293 269 240 262 136 255 138 224 145 192 134 227 200 192 165 191 172 168 108 225 161 232 234 232 216 203 227 242 189 213 160 160 146 174 215 137 180 87 273 187 215 187 190 232 266 78 10 156 281 85 160 261 324 325 312 335 142 192 207 212 206 190 186 186 195 181 180 173
329 330 332 333 331 336 356 268 337 293 316 280 99 328 314 306 253 97 53 349 343 245 183 323 166 310 214 199 165 115 95 253 208 169 174 166 188 154 164 229 313 233 167 167 49 291 275 303 145 137 140 132 114 179 229 141 117 233 239 172 192 123 113 85 127 154 228 238 307 27 111 161 302 295 277 285 95 177 197 221 234 213 192 195 195 192 186 170
325 326 328 327 324 335 211 318 336 298 237 279 344 327 318 295 46 46 83 20 301 264 136 232 231 345 275 222 147 171 204 176 87 234 185 181 148 142 196 214 197 194 229 72 284 254 319 297 157 206 131 151 192 207 217 144 137 213 251 193 250 121 170 144 110 143 214 313 290 316 17 66 274 268 323 353 11 332 200 205 210 201 196 194 196 189 185 174
322 323 322 320 317 307 242 237 280 252 241 322 314 313 312 346 72 105 122 100 253 65 312 147 280 76 273 53 190 191 238 126 201 254 196 158 177 131 206 228 212 175 212 153 212 293 288 194 211 172 127 199 224 221 183 143 173 275 234 255 241 201 135 113 111 75 353 62 289 278 313 134 288 279 324 339 98 304 254 244 228 210 192 188 194 193 183 176
319 318 318 318 321 95 229 207 231 243 299 311 300 306 329 50 37 41 349 253 328 306 230 249 133 214 183 162 219 209 231 180 168 30 148 162 209 51 224 167 197 216 259 352 180 211 240 258 176 126 182 200 196 226 171 171 204 240 10 277 320 22 12 33 62 90 66 32 256 234 312 137 289 267 238 10 270 227 110 38 357 178 176 180 181 161 164 161
316 313 311 310 236 245 155 279 247 243 253 292 312 339 59 35 111 103 197 233 294 251 324 12 238 132 170 161 205 232 238 241 310 122 7 126 166 198 358 354 21 55 35 7 322 313 335 323 194 252 177 135 115 79 311 205 113 142 62 126 49 339 8 27 347 43 112 277 260 266 169 123 141 292 300 247 298 303 234 144 184 159 145 140 144 141 131 127
315 310 297 266 217 289 183 236 227 49 338 336 0 56 69 43 7 147 211 334 71 281 99 254 241 214 194 186 183 187 207 231 160 155 167 191 143 183 235 215 179 48 323 282 270 358 333 281 251 299 211 132 113 34 309 358 40 76 70 56 121 254 33 339 5 328 153 172 235 291 329 28 233 216 244 297 308 297 318 152 160 127 124 122 118 117 120 119
316 307 303 269 224 214 242 248 312 331 328 349 49 53 67 106 222 240 271 308 254 129 289 320 256 240 187 181 222 205 192 224 198 202 176 191 137 212 215 197 179 142 186 250 192 12 275 292 313 298 353 148 107 165 278 349 4 103 181 144 85 86 62 225 274 214 329 299 265 233 189 220 252 297 235 248 291 271 135 121 119 110 117 112 107 113 116 110
315 311 305 212 192 209 229 233 222 318 27 25 80 46 60 102 240 232 216 240 242 326 329 333 300 261 205 209 222 171 178 214 163 208 166 185 142 214 296 280 161 91 134 203 180 197 40 350 306 150 279 237 137 170 179 178 180 199 160 148 180 141 159 204 193 198 213 207 278 298 56 237 80 245 232 247 304 82 97 84 90 95 94 93 91 88 89 85
314 299 259 260 230 232 229 224 194 48 49 67 59 90 147 231 247 211 233 276 273 283 261 258 266 298 325 335 287 221 173 240 198 152 183 132 223 182 192 238 211 136 102 120 261 94 202 206 252 235 227 156 171 188 142 96 58 274 140 87 78 229 140 182 201 147 208 159 2 321 210 175 152 248 296 318 35 103 99 101 103 93 92 87 79 77 75 70
313 303 233 252 200 243 189 197 169 153 117 73 88 168 206 190 210 189 234 197 270 332 327 327 290 202 202 272 325 305 209 177 242 122 298 175 199 197 220 193 184 181 139 170 204 181 35 273 271 327 31 163 209 156 218 117 131 267 50 315 228 178 117 90 21 316 102 54 254 206 328 324 303 337 18 58 85 106 105 117 116 116 112 106 106 105 101 93
329 324 337 241 237 171 156 149 153 146 104 102 114 231 207 263 214 267 285 270 317 348 332 11 294 99 63 227 314 2 3 332 232 175 283 356 342 339 306 283 212 175 180 139 294 178 141 236 300 41 6 341 322 242 156 146 147 64 75 249 99 71 113 127 186 344 69 131 258 40 207 317 39 262 348 30 358 100 102 119 124 124 124 120 131 133 128 119
316 298 255 251 237 157 140 144 137 126 97 104 184 224 216 233 207 229 298 328 328 7 332 268 268 165 201 98 312 48 350 30 285 162 234 184 249 234 297 291 330 188 180 208 122 255 114 347 304 338 356 301 340 43 8 331 4 151 191 192 90 264 324 322 89 270 94 235 254 305 116 86 150 267 332 342 6 306 87 144 133 134 133 135 141 142 135 129
248 338 321 262 243 148 140 145 132 126 91 119 229 193 274 242 278 274 274 277 280 299 291 231 212 265 165 153 189 143 111 212 277 271 203 220 185 229 223 263 15 0 110 99 74 197 56 144 300 302 54 305 6 44 15 310 330 7 119 28 312 99 169 124 194 173 117 237 80 285 55 172 275 45 316 297 315 236 154 132 71 94 129 138 139 132 120 104
350 20 289 273 32 131 136 127 100 95 96 183 203 228 247 285 274 270 262 252 277 215 223 229 176 140 324 209 157 163 186 230 229 259 111 302 114 297 28 348 349 342 41 83 122 106 74 107 168 278 305 39 37 359 64 0 17 336 19 339 4 46 210 110 18 101 155 164 162 186 18 291 285 236 290 291 336 62 125 104 76 92 73 67 92 110 107 109
291 128 275 278 43 138 120 91 101 162 158 249 169 214 257 267 307 290 297 266 265 240 242 245 203 160 211 24 326 205 152 249 274 262 130 328 111 31 12 22 357 337 50 35 54 351 78 16 170 307 19 24 217 255 359 326 289 220 199 233 186 134 93 114 242 346 94 94 192 105 207 259 274 282 262 256 140 112 111 102 100 111 135 141 138 136 134 127
35 1 257 297 4 161 116 115 208 158 137 178 229 196 246 244 254 268 277 274 240 249 225 216 229 195 187 214 188 192 144 177 235 224 213 143 238 144 297 32 23 350 86 79 165 239 148 148 94 84 196 224 247 280 289 32 96 85 82 9 67 96 99 95 127 261 18 311 114 140 114 305 243 260 274 0 347 70 85 121 135 143 136 127 120 132 111 107
45 227 277 322 336 143 105 78 333 113 197 227 219 254 250 266 268 281 290 287 292 251 2 318 245 71 339 113 50 64 33 156 165 233 213 137 167 171 118 49 36 28 45 324 25 302 70 70 37 301 311 296 313 156 62 33 39 19 3 23 42 11 231 169 171 184 131 144 89 20 97 248 283 277 288 124 96 60 53 92 95 67 35 34 53 58 70 80
286 296 316 355 15 47 81 125 248 250 262 295 235 256 219 253 266 284 276 284 262 304 159 196 2 55 243 27 79 72 14 44 293 73 69 119 105 208 48 14 92 36 79 236 126 262 73 295 114 37 356 344 347 355 4 344 49 80 325 348 32 19 39 19 93 32 85 231 170 120 171 222 63 300 280 93 89 92 85 48 85 94 75 68 49 26 54 97
291 271 268 316 8 23 99 228 197 211 259 246 260 286 281 262 223 226 238 331 324 19 54 28 355 292 34 324 111 113 46 92 239 0 33 153 164 201 151 136 97 62 31 200 133 112 92 180 93 115 142 126 317 309 302 338 314 287 19 9 15 51 23 43 18 348 98 277 84 108 165 249 258 319 51 71 90 76 80 106 84 97 116 110 96 87 38 41
6 9 311 343 7 358 119 233 312 355 302 332 352 270 254 280 305 240 177 80 5 63 45 35 24 52 22 6 38 47 40 48 77 308 22 1 2 358 315 130 101 115 113 82 67 71 127 68 98 148 148 180 201 211 240 95 27 24 310 14 342 33 43 90 110 82 127 193 63 225 158 155 9 359 9 355 78 120 125 113 119 120 113 106 118 120 120 129
343 53 351 343 324 11 344 354 6 9 343 277 99 308 346 344 314 4 16 97 3 32 64 36 21 41 336 42 24 44 355 46 13 63 4 13 357 41 18 67 77 90 114 85 79 72 65 64 123 111 127 176 185 187 288 31 28 309 4 326 357 46 38 79 92 189 176 72 318 305 18 83 346 360 16 17 355 25 18 16 47 62 27 95 136 135 137 144
50 312 77 253 183 295 359 348 342 331 349 20 54 15 26 18 23 20 349 52 33 33 81 20 37 38 27 13 84 56 340 62 46 15 320 14 3 359 29 355 67 351 97 80 50 111 132 124 258 105 32 110 101 54 33 64 65 26 12 3 355 11 69 91 130 203 131 131 170 243 112 91 340 357 9 33 27 45 30 22 26 97 104 78 51 39 26 15
92 317 342 342 58 306 220 270 316 303 25 2 93 34 31 28 40 24 10 329 32 10 34 86 31 43 44 23 68 95 11 65 356 328 29 332 8 353 24 344 354 9 37 25 18 74 92 0 188 102 99 40 27 47 50 51 29 43 23 13 339 89 98 104 72 34 94 109 149 129 95 82 28 344 353 351 351 48 50 41 47 51 49 46 44 39 33 53
5 25 329 355 262 303 323 332 342 16 46 4 44 25 40 29 32 26 31 31 42 26 12 78 42 45 53 53 43 76 38 101 118 334 325 4 326 30 43 130 278 331 23 40 63 347 99 269 133 68 69 350 341 47 50 61 70 51 14 10 15 34 57 33 65 28 71 70 69 86 75 53 357 351 352 349 6 28 40 39 43 46 44 50 49 31 18 6
285 208 260 339 17 4 11 18 9 33 34 1 21 9 44 31 27 28 60 35 54 57 37 73 39 42 28 43 43 38 356 348 289 228 243 286 307 290 34 287 44 2 344 4 28 325 70 194 48 72 76 322 324 59 34 71 84 69 27 2 359 16 60 0 43 324 93 134 104 72 51 20 315 341 28 50 55 49 44 26 23 20 26 51 57 36 26 14
281 258 319 151 69 351 30 4 28 43 29 345 348 22 23 33 39 33 58 15 37 56 63 87 93 83 29 29 13 336 306 298 290 283 271 258 243 268 230 254 290 90 282 32 229 75 138 113 84 88 77 253 278 87 68 55 42 16 351 324 335 53 116 82 39 31 25 128 74 90 147 254 304 306 64 37 57 57 49 29 21 24 21 29 29 28 29 39